TimeMST,TemperatureF,Dew PointF,Humidity,Sea Level PressureIn,VisibilityMPH,Wind Direction,Wind SpeedMPH,Gust SpeedMPH,PrecipitationIn,Events,Conditions,WindDirDegrees,DateUTC
12:04 AM,23.0,17.6,80,30.35,10.0,SW,20.7,24.2,N/A,,Clear,220,2013-03-03 07:04:00
12:26 AM,23.0,17.6,80,30.34,10.0,SW,23.0,-,N/A,,Clear,230,2013-03-03 07:26:00
12:46 AM,23.0,19.4,86,30.34,10.0,SW,18.4,-,N/A,,Clear,220,2013-03-03 07:46:00
1:05 AM,23.0,19.4,86,30.33,10.0,SW,18.4,24.2,N/A,,Clear,230,2013-03-03 08:05:00
1:24 AM,23.0,19.4,86,30.32,10.0,SW,19.6,24.2,N/A,,Clear,220,2013-03-03 08:24:00
1:45 AM,23.0,19.4,86,30.31,10.0,SW,24.2,-,N/A,,Clear,230,2013-03-03 08:45:00
2:04 AM,23.0,19.4,86,30.29,10.0,SW,24.2,28.8,N/A,,Clear,230,2013-03-03 09:04:00
2:24 AM,23.0,19.4,86,30.29,10.0,SW,20.7,29.9,N/A,,Clear,230,2013-03-03 09:24:00
2:45 AM,21.2,17.6,86,30.27,10.0,SW,21.9,29.9,N/A,,Clear,230,2013-03-03 09:45:00
3:06 AM,21.2,17.6,86,30.26,10.0,SW,24.2,28.8,N/A,,Clear,230,2013-03-03 10:06:00
3:25 AM,21.2,17.6,86,30.24,10.0,SW,18.4,28.8,N/A,,Clear,230,2013-03-03 10:25:00
3:45 AM,21.2,17.6,86,30.24,10.0,SW,18.4,27.6,N/A,,Clear,220,2013-03-03 10:45:00
4:03 AM,21.2,17.6,86,30.23,10.0,SW,24.2,29.9,N/A,,Clear,220,2013-03-03 11:03:00
4:26 AM,21.2,15.8,80,30.22,10.0,SW,19.6,28.8,N/A,,Clear,230,2013-03-03 11:26:00
5:05 AM,21.2,15.8,80,30.20,10.0,SW,21.9,29.9,N/A,,Clear,220,2013-03-03 12:05:00
5:25 AM,21.2,15.8,80,30.19,10.0,SW,28.8,34.5,N/A,,Clear,220,2013-03-03 12:25:00
5:45 AM,21.2,14.0,74,30.19,10.0,SW,26.5,35.7,N/A,,Clear,230,2013-03-03 12:45:00
6:06 AM,21.2,14.0,74,30.17,10.0,SW,34.5,39.1,N/A,,Clear,230,2013-03-03 13:06:00
6:25 AM,21.2,14.0,74,30.16,10.0,SW,36.8,46.0,N/A,,Clear,230,2013-03-03 13:25:00
6:45 AM,23.0,12.2,63,30.17,10.0,SW,33.4,41.4,N/A,,Clear,230,2013-03-03 13:45:00
7:05 AM,21.2,14.0,74,30.17,10.0,SW,28.8,38.0,N/A,,Clear,230,2013-03-03 14:05:00
7:23 AM,21.2,14.0,74,30.17,10.0,SW,26.5,33.4,N/A,,Clear,220,2013-03-03 14:23:00
7:43 AM,21.2,14.0,74,30.16,10.0,SW,29.9,34.5,N/A,,Clear,230,2013-03-03 14:43:00
8:03 AM,23.0,14.0,68,30.15,10.0,SW,25.3,35.7,N/A,,Clear,220,2013-03-03 15:03:00
8:23 AM,23.0,14.0,68,30.15,10.0,SW,27.6,34.5,N/A,,Clear,220,2013-03-03 15:23:00
8:43 AM,24.8,14.0,64,30.14,10.0,SW,26.5,35.7,N/A,,Clear,230,2013-03-03 15:43:00
9:04 AM,26.6,14.0,59,30.14,10.0,SW,25.3,35.7,N/A,,Clear,220,2013-03-03 16:04:00
9:24 AM,26.6,14.0,59,30.14,10.0,SW,27.6,40.3,N/A,,Clear,220,2013-03-03 16:24:00
9:43 AM,28.4,14.0,55,30.14,10.0,SW,28.8,42.6,N/A,,Clear,220,2013-03-03 16:43:00
10:03 AM,28.4,12.2,51,30.14,10.0,SW,23.0,43.7,N/A,,Scattered Clouds,220,2013-03-03 17:03:00
10:23 AM,28.4,12.2,51,30.14,10.0,SSW,23.0,34.5,N/A,,Scattered Clouds,210,2013-03-03 17:23:00
10:44 AM,28.4,14.0,55,30.13,10.0,SW,18.4,38.0,N/A,,Scattered Clouds,220,2013-03-03 17:44:00
11:04 AM,28.4,14.0,55,30.13,10.0,SW,20.7,31.1,N/A,,Scattered Clouds,220,2013-03-03 18:04:00
11:23 AM,30.2,14.0,51,30.12,10.0,SW,23.0,33.4,N/A,,Scattered Clouds,220,2013-03-03 18:23:00
11:44 AM,28.4,14.0,55,30.12,10.0,SW,19.6,27.6,N/A,,Mostly Cloudy,220,2013-03-03 18:44:00
12:04 PM,28.4,14.0,55,30.13,10.0,SSW,17.3,33.4,N/A,,Mostly Cloudy,210,2013-03-03 19:04:00
12:23 PM,26.6,14.0,59,30.11,10.0,SW,23.0,29.9,N/A,,Overcast,230,2013-03-03 19:23:00
12:43 PM,28.4,17.6,64,30.10,10.0,SW,23.0,34.5,N/A,,Mostly Cloudy,220,2013-03-03 19:43:00
1:03 PM,26.6,17.6,69,30.08,10.0,SW,33.4,43.7,N/A,,Scattered Clouds,220,2013-03-03 20:03:00
1:22 PM,26.6,17.6,69,30.06,10.0,SSW,20.7,35.7,N/A,,Scattered Clouds,210,2013-03-03 20:22:00
1:45 PM,26.6,17.6,69,30.05,10.0,SW,17.3,34.5,N/A,,Mostly Cloudy,220,2013-03-03 20:45:00
2:04 PM,26.6,17.6,69,30.04,10.0,SSW,29.9,40.3,N/A,,Overcast,210,2013-03-03 21:04:00
2:24 PM,26.6,17.6,69,30.05,10.0,SW,23.0,43.7,N/A,,Overcast,230,2013-03-03 21:24:00
2:44 PM,24.8,15.8,69,30.03,10.0,SW,23.0,38.0,N/A,,Overcast,220,2013-03-03 21:44:00
3:04 PM,24.8,15.8,69,30.03,10.0,SW,29.9,41.4,N/A,,Overcast,230,2013-03-03 22:04:00
3:24 PM,23.0,15.8,74,30.03,10.0,SSW,20.7,34.5,N/A,,Overcast,200,2013-03-03 22:24:00
3:46 PM,23.0,15.8,74,30.03,10.0,SW,25.3,35.7,N/A,,Overcast,220,2013-03-03 22:46:00
4:03 PM,23.0,15.8,74,30.03,10.0,SSW,24.2,38.0,N/A,,Overcast,210,2013-03-03 23:03:00
4:23 PM,23.0,15.8,74,30.03,10.0,SSW,23.0,32.2,N/A,,Overcast,210,2013-03-03 23:23:00
4:45 PM,23.0,15.8,74,30.02,4.0,SW,21.9,29.9,N/A,Snow,Light Snow,220,2013-03-03 23:45:00
5:06 PM,21.2,15.8,80,30.01,10.0,SW,24.2,38.0,N/A,,Overcast,220,2013-03-04 00:06:00
5:45 PM,21.2,14.0,74,30.02,10.0,SW,25.3,35.7,N/A,,Overcast,230,2013-03-04 00:45:00
6:04 PM,21.2,15.8,80,30.02,10.0,SW,21.9,32.2,N/A,,Overcast,220,2013-03-04 01:04:00
6:23 PM,21.2,15.8,80,30.01,10.0,SSW,24.2,32.2,N/A,,Overcast,210,2013-03-04 01:23:00
6:43 PM,21.2,15.8,80,30.02,7.0,SW,20.7,33.4,N/A,Snow,Light Snow,220,2013-03-04 01:43:00
7:04 PM,19.4,15.8,86,30.02,7.0,SW,24.2,33.4,N/A,Snow,Light Snow,220,2013-03-04 02:04:00
7:26 PM,19.4,17.6,93,30.02,2.0,SW,15.0,24.2,N/A,Snow,Light Snow,220,2013-03-04 02:26:00
7:46 PM,19.4,17.6,93,30.02,5.0,SW,17.3,21.9,N/A,Snow,Light Snow,220,2013-03-04 02:46:00
8:24 PM,19.4,17.6,93,30.01,10.0,SW,17.3,21.9,N/A,Snow,Light Snow,230,2013-03-04 03:24:00
8:45 PM,19.4,17.6,93,30.01,4.0,SW,15.0,23.0,N/A,Snow,Light Snow,220,2013-03-04 03:45:00
9:05 PM,19.4,17.6,93,30.00,2.0,SW,17.3,23.0,N/A,Snow,Light Snow,220,2013-03-04 04:05:00
9:26 PM,19.4,19.4,100,30.00,4.0,SW,18.4,26.5,N/A,Snow,Light Snow,230,2013-03-04 04:26:00
9:47 PM,19.4,17.6,93,30.00,10.0,SW,17.3,28.8,N/A,,Overcast,220,2013-03-04 04:47:00
10:06 PM,19.4,17.6,93,30.00,10.0,SW,18.4,25.3,N/A,,Overcast,220,2013-03-04 05:06:00
10:24 PM,19.4,17.6,93,29.99,5.0,SW,17.3,24.2,N/A,Snow,Light Snow,220,2013-03-04 05:24:00
10:44 PM,19.4,17.6,93,29.99,3.0,SW,16.1,23.0,N/A,Snow,Light Snow,220,2013-03-04 05:44:00
11:04 PM,19.4,17.6,93,29.98,5.0,SW,17.3,28.8,N/A,Snow,Light Snow,220,2013-03-04 06:04:00
11:26 PM,19.4,17.6,93,29.97,3.0,SW,15.0,27.6,N/A,Snow,Light Snow,220,2013-03-04 06:26:00
11:45 PM,19.4,17.6,93,29.97,1.5,SSW,21.9,32.2,N/A,Snow,Light Snow,210,2013-03-04 06:45:00